Location: Antist
(43.1184°N, 0.1270°E)
Time: 05:27:32
(UTC+00:00)

FALCON 9 R/B - Pass Details

Date: 19 January 2020
Orbit: 286 x 10157 km, 34.5° (Epoch: 26 February)

Event Time Altitude Azimuth Distance (km) Brightness Sun altitude
Rises 19:11:42 0° 228° (SW) 8,731 8.2 -24.8°
Reaches altitude 10° 19:20:55 10° 219° (SW) 5,759 7.0 -26.4°
Maximum altitude 19:30:59 24° 174° (S) 2,509 4.5 -28.3°
Enters shadow 19:32:17 23° 160° (SSE) 2,290 4.2 -28.5°
